• MPC Preparation (Info)

  • MPEC 2019-V125 : 2019 VP4

    The following Minor Planet Electronic Circular may be linked-to from your own Web pages, but must not otherwise be redistributed electronically.

    A form allowing access to any MPEC is at the bottom of this page.


    Read MPEC 2019-V124 Read MPEC 2019-V126


    M.P.E.C. 2019-V125                             Issued 2019 November 8, 03:31 UT
    
         The Minor Planet Electronic Circulars contain information on unusual
             minor planets and routine data on comets.  They are published
        on behalf of Division F of the International Astronomical Union by the
              Minor Planet Center, Smithsonian Astrophysical Observatory,
                              Cambridge, MA 02138, U.S.A.
    
                 Prepared using the Tamkin Foundation Computer Network
    
                                  MPC@CFA.HARVARD.EDU
                URL https://www.minorplanetcenter.net/    ISSN 1523-6714
    
                                    2019 VP4                                 
    
    
    Observations:
         K19V04P* C2019 11 04.10585 23 12 23.02 +34 00 07.3          20.7 GVEV125G96
         K19V04P  C2019 11 04.11104 23 12 25.75 +34 00 11.1          21.4 GVEV125G96
         K19V04P  C2019 11 04.11768 23 12 29.21 +34 00 16.1          21.7 GVEV125G96
         K19V04P  C2019 11 04.12285 23 12 31.85 +34 00 19.3          20.9 GVEV125G96
         K19V04P  C2019 11 04.19143623 13 07.20 +34 01 02.6          20.7 GVEV125H01
         K19V04P  C2019 11 04.20211123 13 12.74 +34 01 08.9          20.8 GVEV125H01
         K19V04P  C2019 11 04.20716923 13 15.37 +34 01 11.9          20.8 GVEV125H01
         K19V04P  C2019 11 04.21573123 13 19.81 +34 01 16.8          20.9 GVEV125H01
         K19V04P  C2019 11 04.23301 23 13 29.01 +34 01 29.2          21.6 GVEV125I52
         K19V04P  C2019 11 04.23635 23 13 30.77 +34 01 31.0          20.9 GVEV125I52
         K19V04P  C2019 11 04.23968 23 13 32.54 +34 01 33.0          20.9 GVEV125I52
         K19V04P  C2019 11 05.06594 23 20 55.26 +34 09 15.9          20.9 GVEV125I52
         K19V04P  C2019 11 05.06763 23 20 56.03 +34 09 17.8          22.7 GVEV125I52
         K19V04P  C2019 11 05.06930 23 20 56.91 +34 09 18.1          21.7 GVEV125I52
         K19V04P  C2019 11 05.07096 23 20 57.72 +34 09 19.7          21.0 GVEV125I52
         K19V04P  C2019 11 05.24801823 22 27.007+34 10 59.00         21.8 GVEV125F51
         K19V04P  C2019 11 05.25455323 22 30.107+34 11 02.08         21.7 GVEV125F51
         K19V04P  C2019 11 05.26113123 22 33.251+34 11 05.43         22.1 GVEV125F51
         K19V04P  C2019 11 08.09295 23 44 20.76 +34 21 30.9          21.5 GVEV125G96
         K19V04P  C2019 11 08.09443 23 44 21.32 +34 21 30.7                VEV125G96
    
    Observer details:
    F51 Pan-STARRS 1, Haleakala.  Observers J. Bulger, K. Chambers, T. Lowe, E. 
       Magnier, A. Schultz, M. Willman.  Measurers S. Chastel, M. Huber, Y. 
       Ramanjooloo, R. Wainscoat, R. Weryk.  1.8-m Ritchey-Chretien + CCD.
    G96 Mt. Lemmon Survey.  Observers E. J. Christensen, T. A. Pruyne.  Measurers 
       E. J. Christensen, G. A. Farneth, D. C. Fuls, A. R. Gibbs, A. D. Grauer, H. 
       Groeller, R. A. Kowalski, S. M. Larson, G. J. Leonard, T. A. Pruyne, D. 
       Rankin, R. L. Seaman, F. C. Shelly, K. W. Wierzchos.  1.5-m reflector + 10K 
       CCD.
    H01 Magdalena Ridge Observatory, Socorro.  Observers W. H. Ryan, E. V. Ryan.  
        Measurer W. H. Ryan.  2.4-m f/8.9 Ritchey-Chretien + CCD.
    I52 Steward Observatory, Mt. Lemmon Station.  Observers R. A. Kowalski, K. W. 
       Wierzchos, D. Rankin.  Measurers E. J. Christensen, G. A. Farneth, D. C. 
       Fuls, A. R. Gibbs, A. D. Grauer, H. Groeller, R. A. Kowalski, S. M. Larson, 
       G. J. Leonard, T. A. Pruyne, D. Rankin, R. L. Seaman, F. C. Shelly, K. W. 
       Wierzchos.  1.0-m reflector + CCD.
    
    Orbital elements:
    2019 VP4                                                 Earth MOID = 0.0383 AU
    Epoch 2019 Apr. 27.0 TT = JDT 2458600.5                 Bell
    M 281.78683              (2000.0)            P               Q
    n   0.58714766     Peri.  328.73852     +0.85059727     +0.52581700
    a   1.4124437      Node   359.53551     -0.45748138     +0.73923283
    e   0.3729602      Incl.    6.17873     -0.25922011     +0.42077464
    P   1.68           H   24.4           G   0.15           U   8
    Residuals in seconds of arc
    191104 G96  0.1-  0.3+    191104 H01  0.2-  0.0     191105 I52  0.2+  0.1+
    191104 G96  0.2+  0.3+    191104 I52  0.2-  0.1-    191105 F51  0.1+  0.1+
    191104 G96  0.2+  0.4+    191104 I52  0.1+  0.1-    191105 F51  0.1-  0.1-
    191104 G96  0.4-  0.1-    191104 I52  0.6+  0.1+    191105 F51  0.0   0.1+
    191104 H01  0.0   0.1-    191105 I52  0.2+  0.7-    191108 G96  0.2+  0.3+
    191104 H01  0.1-  0.1-    191105 I52  0.6-  0.2+    191108 G96  0.2-  0.1-
    191104 H01  0.0   0.0     191105 I52  0.2+  0.5-
    
    Ephemeris:
    2019 VP4                 a,e,i = 1.41, 0.37, 6                   q = 0.8857
    Date    TT    R. A. (2000) Decl.     Delta      r    Elong.  Phase     V
    2019 10 09    16 54 14.6 -11 28 18   0.09918 0.9520    59.1   115.8    23.8
    ...
    2019 10 24    20 42 05.7 +24 12 18   0.07778 1.0191   106.1    69.7    21.3
    ...
    2019 11 01    22 40 26.6 +33 03 01   0.1082  1.0605   126.4    48.9    21.5
    ...
    2019 11 07    23 36 23.8 +34 19 34   0.1406  1.0933   133.8    40.8    21.9
    2019 11 08    23 43 39.5 +34 21 27   0.1465  1.0988   134.6    39.9    22.0
    2019 11 09    23 50 27.5 +34 21 30   0.1525  1.1044   135.4    39.1    22.1
    ...
    2019 11 15    00 23 37.3 +33 57 49   0.1908  1.1384   138.1    35.5    22.5
    ...
    2019 11 23    00 54 45.8 +33 00 13   0.2470  1.1846   138.7    33.4    23.1
    ...
    2019 12 08    01 35 33.8 +31 14 19   0.3681  1.2717   134.8    33.3    24.1
    
    A. U. Tomatic                (C) Copyright 2019 MPC           M.P.E.C. 2019-V125
    


    Read MPEC 2019-V124 Read MPEC 2019-V126


    MPEC number:

    Enter an MPEC number in one of the following forms:

    • 1997-B01 (the full form)
    • J97B01 (the packed version of the full form)
    • B01 (the abbreviated form)